Location: Aranbee
(34.0885°N, 118.2342°W)
Time: 23:44:48
(UTC+00:00)

Tiros 1 - Pass Details

Date: 27 November 2020
Orbit: 630 x 663 km, 48.4° (Epoch: 20 January)

Event Time Altitude Azimuth Distance (km) Brightness Sun altitude
Rises 01:23:28 0° 279° (W) 2,988 11.8 -8.3°
Reaches altitude 10° 01:26:26 10° 298° (WNW) 2,073 10.4 -8.9°
Maximum altitude 01:29:50 19° 343° (NNW) 1,558 9.1 -9.6°
Drops below altitude 10° 01:33:14 10° 29° (NNE) 2,065 9.3 -10.2°
Enters shadow 01:33:55 - 34° (NE) 2,251 9.5 -10.4°
Sets 01:36:12 0° 47° (NE) 2,971 - -10.8°
